Powrót do katalogu

STARLINK-32913

AktywnyŁącznośćVLEO
NORAD 63098·PAYLOAD·🇺🇸 United States

Wystrzelony Feb 23, 2025 z Vandenberg Space Force Base

Loading…

Następne Przeloty (najbliższe 24 godziny)

TLE

ŚwieżeSource: CelesTrak SupGP

Epoka: Sep 15, 2026, 03:12 UTC

1 63098C 25037X   26258.13381944 -.00044037  00000+0 -15320-2 0  2589
2 63098  70.0009 235.0662 0003112 268.4277  40.6710 15.29598977    12

Śledź STARLINK-32913 w czasie rzeczywistym z AllMySat

Download on the App Store